When you browse on this site, cookies collect data to enhance your experience and personalize the content and advertising you see.
Visit our Privacy Policy to learn more. By continuing to use the site, you agree to this use of cookies and data.
  • In Hungary
  • List of Countries
  • For 7 days
  • Water Temperature
  • Weather Map
  • News
  • Weather Widgets
  • user-avatar
    Login

    Hourly Weather Leticia

    Today, 28 March, Saturday

    Time Temperature Precipitation Wind Pressure Humidity
    00:00 +24°C° 0 mm 0 mps 748 mmHg 95%
    01:00 +26°C° 0 mm 1 mps 748 mmHg 94%
    02:00 +25°C° 0 mm 1 mps 748 mmHg 95%
    03:00 +25°C° 0 mm 1 mps 748 mmHg 96%
    04:00 +25°C° 0 mm 1 mps 747 mmHg 97%
    05:00 +24°C° 0 mm 0 mps 748 mmHg 95%
    06:00 +24°C° 0 mm 0 mps 748 mmHg 93%
    07:00 +27°C° 0 mm 1 mps 749 mmHg 89%
    08:00 +29°C° 0 mm 1 mps 750 mmHg 78%
    09:00 +32°C° 0 mm 1 mps 750 mmHg 66%
    10:00 +34°C° 0 mm 1 mps 751 mmHg 55%
    11:00 +36°C° 0 mm 1 mps 749 mmHg 51%
    12:00 +38°C° 0 mm 2 mps 748 mmHg 47%
    13:00 +39°C° 0 mm 2 mps 747 mmHg 43%
    14:00 +37°C° 0 mm 1 mps 746 mmHg 46%
    15:00 +36°C° 0 mm 1 mps 746 mmHg 50%
    16:00 +36°C° 0 mm 1 mps 745 mmHg 54%
    17:00 +34°C° 0 mm 1 mps 746 mmHg 59%
    18:00 +32°C° 0 mm 1 mps 746 mmHg 65%
    19:00 +30°C° 0 mm 1 mps 747 mmHg 71%
    20:00 +29°C° 0.3 mm 1 mps 748 mmHg 75%
    21:00 +29°C° 0.3 mm 1 mps 748 mmHg 79%
    22:00 +28°C° 0.3 mm 1 mps 749 mmHg 84%
    23:00 +27°C° 0.4 mm 1 mps 749 mmHg 88%

    Tomorrow, 29 March, Sunday

    Time Temperature Precipitation Wind Pressure Humidity
    00:00 +25°C° 0.4 mm 0 mps 749 mmHg 92%
    01:00 +24°C° 0.4 mm 0 mps 749 mmHg 96%
    02:00 +24°C° 1.8 mm 0 mps 749 mmHg 97%
    03:00 +23°C° 1.8 mm 0 mps 749 mmHg 98%
    04:00 +23°C° 1.8 mm 0 mps 749 mmHg 99%
    05:00 +24°C° 0 mm 0 mps 750 mmHg 98%
    06:00 +24°C° 0 mm 0 mps 750 mmHg 98%
    07:00 +24°C° 0 mm 0 mps 750 mmHg 97%
    08:00 +26°C° 0.7 mm 0 mps 751 mmHg 90%
    09:00 +30°C° 0.7 mm 1 mps 751 mmHg 83%
    10:00 +32°C° 0.7 mm 1 mps 751 mmHg 76%
    11:00 +32°C° 1.7 mm 1 mps 750 mmHg 75%
    12:00 +32°C° 1.7 mm 1 mps 749 mmHg 73%
    13:00 +33°C° 1.7 mm 1 mps 748 mmHg 72%
    14:00 +31°C° 0.1 mm 0 mps 748 mmHg 68%
    15:00 +32°C° 0.1 mm 0 mps 747 mmHg 64%
    16:00 +32°C° 0.1 mm 0 mps 747 mmHg 61%
    17:00 +30°C° 0.8 mm 0 mps 748 mmHg 70%
    18:00 +28°C° 0.8 mm 0 mps 748 mmHg 80%
    19:00 +26°C° 0.8 mm 0 mps 748 mmHg 89%
    20:00 +25°C° 3.2 mm 0 mps 749 mmHg 92%
    21:00 +25°C° 3.2 mm 0 mps 750 mmHg 95%
    22:00 +24°C° 3.2 mm 0 mps 751 mmHg 97%
    23:00 +26°C° 5.4 mm 1 mps 750 mmHg 98%

    Day after tomorrow, 30 March, Monday

    Time Temperature Precipitation Wind Pressure Humidity
    00:00 +26°C° 5.4 mm 1 mps 750 mmHg 98%
    01:00 +26°C° 5.4 mm 1 mps 750 mmHg 99%
    02:00 +26°C° 16.9 mm 1 mps 750 mmHg 99%
    03:00 +25°C° 16.9 mm 1 mps 750 mmHg 99%
    04:00 +25°C° 16.9 mm 1 mps 750 mmHg 99%
    05:00 +25°C° 14.2 mm 1 mps 750 mmHg 99%
    06:00 +25°C° 14.2 mm 1 mps 750 mmHg 99%
    07:00 +25°C° 14.2 mm 1 mps 751 mmHg 99%
    08:00 +25°C° 2.4 mm 1 mps 751 mmHg 99%
    09:00 +25°C° 2.4 mm 1 mps 752 mmHg 99%
    10:00 +25°C° 2.4 mm 1 mps 752 mmHg 99%
    11:00 +26°C° 2.4 mm 1 mps 752 mmHg 99%
    12:00 +26°C° 2.4 mm 1 mps 751 mmHg 99%
    13:00 +24°C° 2.4 mm 0 mps 750 mmHg 98%
    14:00 +23°C° 0.9 mm 0 mps 750 mmHg 98%
    15:00 +25°C° 0.9 mm 1 mps 750 mmHg 99%
    16:00 +25°C° 0.9 mm 1 mps 749 mmHg 99%
    17:00 +23°C° 0.2 mm 0 mps 750 mmHg 99%
    18:00 +23°C° 0.2 mm 0 mps 750 mmHg 99%
    19:00 +23°C° 0.2 mm 0 mps 750 mmHg 99%
    20:00 +23°C° 0 mm 0 mps 750 mmHg 99%
    21:00 +23°C° 0 mm 0 mps 751 mmHg 99%
    22:00 +23°C° 0 mm 0 mps 751 mmHg 99%
    23:00 +23°C° 0.1 mm 0 mps 750 mmHg 99%

    31 March, Tuesday

    Time Temperature Precipitation Wind Pressure Humidity
    00:00 +23°C° 0.1 mm 0 mps 750 mmHg 99%
    01:00 +23°C° 0.1 mm 0 mps 750 mmHg 99%
    02:00 +22°C° 0.3 mm 0 mps 749 mmHg 99%
    03:00 +22°C° 0.3 mm 0 mps 749 mmHg 99%
    04:00 +22°C° 0.3 mm 0 mps 749 mmHg 99%
    05:00 +22°C° 0.2 mm 0 mps 750 mmHg 99%
    06:00 +23°C° 0.2 mm 0 mps 751 mmHg 99%
    07:00 +23°C° 0.2 mm 0 mps 751 mmHg 98%
    08:00 +24°C° 0.1 mm 0 mps 752 mmHg 96%
    09:00 +24°C° 0.1 mm 0 mps 752 mmHg 94%
    10:00 +25°C° 0.1 mm 0 mps 752 mmHg 91%
    11:00 +25°C° 0.2 mm 0 mps 751 mmHg 91%
    12:00 +25°C° 0.2 mm 0 mps 750 mmHg 90%
    13:00 +25°C° 0.2 mm 0 mps 750 mmHg 89%
    14:00 +26°C° 0.2 mm 0 mps 749 mmHg 87%
    15:00 +26°C° 0.2 mm 0 mps 749 mmHg 85%
    16:00 +27°C° 0.2 mm 0 mps 748 mmHg 83%
    17:00 +26°C° 0.1 mm 0 mps 749 mmHg 87%
    18:00 +25°C° 0.1 mm 0 mps 749 mmHg 91%
    19:00 +24°C° 0.1 mm 0 mps 749 mmHg 95%
    20:00 +23°C° 0 mm 0 mps 750 mmHg 95%
    21:00 +23°C° 0 mm 0 mps 750 mmHg 96%
    22:00 +23°C° 0 mm 0 mps 750 mmHg 96%
    23:00 +23°C° 0 mm 0 mps 750 mmHg 97%

    1 April, Wednesday

    Time Temperature Precipitation Wind Pressure Humidity
    00:00 +22°C° 0 mm 0 mps 750 mmHg 97%
    01:00 +22°C° 0 mm 0 mps 749 mmHg 98%
    02:00 +22°C° 0 mm 0 mps 749 mmHg 98%
    03:00 +22°C° 0 mm 0 mps 749 mmHg 98%
    04:00 +22°C° 0 mm 0 mps 749 mmHg 98%
    05:00 +23°C° 0 mm 0 mps 750 mmHg 96%
    06:00 +23°C° 0 mm 0 mps 750 mmHg 94%
    07:00 +24°C° 0 mm 0 mps 751 mmHg 93%
    08:00 +27°C° 0 mm 1 mps 751 mmHg 88%
    09:00 +28°C° 0 mm 1 mps 752 mmHg 83%
    10:00 +29°C° 0 mm 1 mps 752 mmHg 78%
    11:00 +29°C° 0.3 mm 1 mps 751 mmHg 75%
    12:00 +30°C° 0.3 mm 1 mps 750 mmHg 72%
    13:00 +31°C° 0.3 mm 2 mps 749 mmHg 69%
    14:00 +31°C° 0.2 mm 2 mps 749 mmHg 70%
    15:00 +31°C° 0.2 mm 1 mps 748 mmHg 70%
    16:00 +31°C° 0.2 mm 1 mps 748 mmHg 71%
    17:00 +29°C° 0 mm 1 mps 748 mmHg 78%
    18:00 +28°C° 0 mm 1 mps 749 mmHg 85%
    19:00 +26°C° 0 mm 1 mps 749 mmHg 92%
    20:00 +26°C° 0 mm 1 mps 750 mmHg 92%
    21:00 +24°C° 0 mm 0 mps 750 mmHg 92%
    22:00 +24°C° 0 mm 0 mps 751 mmHg 92%
    23:00 +23°C° 0 mm 0 mps 751 mmHg 93%

    2 April, Thursday

    Time Temperature Precipitation Wind Pressure Humidity
    00:00 +23°C° 0 mm 0 mps 750 mmHg 95%
    01:00 +23°C° 0 mm 0 mps 750 mmHg 96%
    02:00 +23°C° 0 mm 0 mps 750 mmHg 96%
    03:00 +22°C° 0 mm 0 mps 750 mmHg 97%
    04:00 +22°C° 0 mm 0 mps 750 mmHg 98%
    05:00 +23°C° 0 mm 0 mps 751 mmHg 95%
    06:00 +23°C° 0 mm 0 mps 751 mmHg 92%
    07:00 +24°C° 0 mm 0 mps 752 mmHg 89%
    08:00 +28°C° 0 mm 1 mps 752 mmHg 80%
    09:00 +30°C° 0 mm 1 mps 752 mmHg 70%
    10:00 +32°C° 0 mm 1 mps 753 mmHg 60%
    11:00 +34°C° 0 mm 2 mps 752 mmHg 57%
    12:00 +35°C° 0 mm 2 mps 751 mmHg 54%
    13:00 +36°C° 0 mm 2 mps 750 mmHg 50%
    14:00 +35°C° 0.1 mm 2 mps 749 mmHg 54%
    15:00 +34°C° 0.1 mm 2 mps 748 mmHg 58%
    16:00 +33°C° 0.1 mm 1 mps 748 mmHg 61%
    17:00 +31°C° 0.2 mm 1 mps 749 mmHg 70%
    18:00 +29°C° 0.2 mm 1 mps 750 mmHg 79%
    19:00 +27°C° 0.2 mm 1 mps 750 mmHg 88%
    20:00 +25°C° 0.3 mm 0 mps 751 mmHg 90%
    21:00 +24°C° 0.3 mm 0 mps 751 mmHg 91%
    22:00 +24°C° 0.3 mm 0 mps 751 mmHg 93%
    23:00 +24°C° 0.2 mm 0 mps 751 mmHg 94%
    Show more